Marion, SC

11:43 AM EDT on April 30, 2017 (GMT -0400)
Marion County

Weather History for KMAO - March, 2013

Change the Weather History Date:

Sunday, March 17, 2013

  Actual Average (KFLO) Record (KFLO)
Temperature  
Mean Temperature 66 °F -  
Max Temperature 78 °F 66 °F 85 °F (2012)
Min Temperature 53 °F 41 °F 25 °F (1988)
Cooling Degree Days 2    
Growing Degree Days 16 (Base 50)    
Moisture  
Dew Point 47 °F    
Average Humidity 52    
Maximum Humidity 94    
Minimum Humidity 32    
Precipitation  
Precipitation 0.00 in - - ()
Sea Level Pressure  
Sea Level Pressure 29.95 in    
Wind  
Wind Speed 10 mph (SW)    
Max Wind Speed 14 mph    
Max Gust Speed 22 mph    
Visibility 10 miles    
Events      
Averages and records for this station are not official NWS values.
T = Trace of Precipitation, MM = Missing Value Source: NWS Daily Summary

Daily Weather History Graph

Daily Weather History Graph

Search for Another Location

Airport or City:

Trip Planner

Search our weather history database for the weather conditions in past years. The results will help you decide how hot, cold, wet, or windy it might be!

Date:

Astronomy

Mar. 17, 2013 Rise Set
Actual Time 7:24 AM EDT 7:26 PM EDT
Civil Twilight 6:59 AM EDT 7:51 PM EDT
Nautical Twilight 6:30 AM EDT 8:20 PM EDT
Astronomical Twilight 6:01 AM EDT 8:50 PM EDT
Moon 10:50 AM EDT (3/17) 12:19 AM EDT (3/17)
Length of Visible Light 12h 52m
Length of Day
12h 02m
Waxing Crescent, 31% of the Moon is Illuminated
Mar 17
Waxing Crescent
Mar 19
First Quarter
Mar 27
Full
Apr 3
Last Quarter
Apr 10
New

Hourly Weather History & Observations

Time (EDT) Temp. Dew Point Humidity Pressure Visibility Wind Dir Wind Speed Gust Speed Precip Events Conditions
12:15 AM 68.0 °F 41.0 °F 37% 29.89 in 10.0 mi SW 13.8 mph 19.6 mph N/A   Clear
12:35 AM 68.0 °F 41.0 °F 37% 29.90 in 10.0 mi SW 12.7 mph 21.9 mph N/A   Clear
12:55 AM 66.2 °F 41.0 °F 40% 29.89 in 10.0 mi SW 11.5 mph - N/A   Clear
1:15 AM 66.2 °F 41.0 °F 40% 29.90 in 10.0 mi SW 10.4 mph - N/A   Clear
1:35 AM 66.2 °F 41.0 °F 40% 29.90 in 10.0 mi SW 8.1 mph - N/A   Clear
1:55 AM 64.4 °F 41.0 °F 42% 29.91 in 10.0 mi SW 8.1 mph - N/A   Clear
2:15 AM 64.4 °F 42.8 °F 45% 29.91 in 10.0 mi SW 9.2 mph - N/A   Clear
2:35 AM 62.6 °F 42.8 °F 48% 29.92 in 10.0 mi SW 8.1 mph - N/A   Clear
2:55 AM 62.6 °F 42.8 °F 48% 29.92 in 10.0 mi SW 6.9 mph - N/A   Clear
3:15 AM 62.6 °F 42.8 °F 48% 29.92 in 10.0 mi WSW 8.1 mph - N/A   Clear
3:35 AM 62.6 °F 42.8 °F 48% 29.92 in 10.0 mi WSW 9.2 mph - N/A   Clear
3:55 AM 60.8 °F 42.8 °F 52% 29.92 in 10.0 mi SW 6.9 mph - N/A   Clear
4:15 AM 62.6 °F 42.8 °F 48% 29.92 in 10.0 mi SW 8.1 mph - N/A   Clear
4:35 AM 60.8 °F 44.6 °F 55% 29.91 in 10.0 mi SW 6.9 mph - N/A   Clear
4:55 AM 60.8 °F 42.8 °F 52% 29.91 in 10.0 mi SW 6.9 mph - N/A   Clear
5:15 AM 60.8 °F 42.8 °F 52% 29.92 in 10.0 mi SW 6.9 mph - N/A   Clear
5:35 AM 60.8 °F 42.8 °F 52% 29.92 in 10.0 mi SW 6.9 mph - N/A   Clear
5:55 AM 59.0 °F 44.6 °F 59% 29.93 in 10.0 mi SW 6.9 mph - N/A   Clear
6:15 AM 59.0 °F 44.6 °F 59% 29.93 in 10.0 mi SW 6.9 mph - N/A   Clear
6:35 AM 59.0 °F 44.6 °F 59% 29.93 in 10.0 mi SW 6.9 mph - N/A   Clear
6:55 AM 59.0 °F 44.6 °F 59% 29.94 in 10.0 mi SW 5.8 mph - N/A   Clear
7:15 AM 57.2 °F 44.6 °F 63% 29.94 in 10.0 mi SSW 5.8 mph - N/A   Clear
7:55 AM 57.2 °F 46.4 °F 67% 29.96 in 10.0 mi SSW 4.6 mph - N/A   Clear
8:15 AM 59.0 °F 46.4 °F 63% 29.96 in 10.0 mi SW 6.9 mph - N/A   Clear
8:35 AM 60.8 °F 48.2 °F 63% 29.97 in 10.0 mi SW 8.1 mph - N/A   Clear
8:55 AM 60.8 °F 50.0 °F 68% 29.97 in 10.0 mi WSW 8.1 mph 17.3 mph N/A   Clear
9:15 AM 62.6 °F 50.0 °F 63% 29.98 in 10.0 mi WSW 12.7 mph 20.7 mph N/A   Clear
9:35 AM 62.6 °F 50.0 °F 63% 29.98 in 10.0 mi WSW 11.5 mph 16.1 mph N/A   Clear
9:55 AM 64.4 °F 50.0 °F 59% 29.99 in 10.0 mi WSW 11.5 mph - N/A   Clear
10:15 AM 66.2 °F 50.0 °F 56% 29.98 in 10.0 mi West 12.7 mph - N/A   Clear
10:35 AM 68.0 °F 50.0 °F 52% 29.99 in 10.0 mi WSW 12.7 mph 19.6 mph N/A   Clear
10:55 AM 69.8 °F 50.0 °F 49% 29.99 in 10.0 mi SW 9.2 mph - N/A   Clear
11:15 AM 69.8 °F 50.0 °F 49% 29.99 in 10.0 mi WSW 11.5 mph - N/A   Clear
11:35 AM 71.6 °F 50.0 °F 46% 29.99 in 10.0 mi WSW 10.4 mph 16.1 mph N/A   Clear
11:55 AM 71.6 °F 50.0 °F 46% 29.98 in 10.0 mi WSW 8.1 mph - N/A   Clear
12:15 PM 73.4 °F 50.0 °F 44% 29.97 in 10.0 mi SSW 8.1 mph - N/A   Clear
12:35 PM 73.4 °F 50.0 °F 44% 29.97 in 10.0 mi West 8.1 mph - N/A   Clear
12:55 PM 75.2 °F 50.0 °F 41% 29.97 in 10.0 mi WSW 10.4 mph - N/A   Clear
1:15 PM 77.0 °F 48.2 °F 36% 29.96 in 10.0 mi West 12.7 mph 18.4 mph N/A   Clear
1:35 PM 77.0 °F 50.0 °F 39% 29.95 in 10.0 mi SW 8.1 mph - N/A   Clear
1:55 PM 78.8 °F 48.2 °F 34% 29.94 in 10.0 mi SW 9.2 mph - N/A   Clear
2:15 PM 78.8 °F 48.2 °F 34% 29.93 in 10.0 mi West 5.8 mph - N/A   Clear
2:35 PM 78.8 °F 48.2 °F 34% 29.93 in 10.0 mi West 9.2 mph 16.1 mph N/A   Clear
3:15 PM 78.8 °F 46.4 °F 32% 29.91 in 10.0 mi SSW 11.5 mph 16.1 mph N/A   Scattered Clouds
3:35 PM 78.8 °F 46.4 °F 32% 29.90 in 10.0 mi WSW 5.8 mph 10.4 mph N/A   Scattered Clouds
3:55 PM 77.0 °F 46.4 °F 34% 29.90 in 10.0 mi SW 5.8 mph - N/A   Scattered Clouds
4:15 PM 77.0 °F 46.4 °F 34% 29.90 in 10.0 mi WSW 6.9 mph - N/A   Scattered Clouds
4:35 PM 77.0 °F 46.4 °F 34% 29.90 in 10.0 mi WSW 10.4 mph 16.1 mph N/A   Clear
4:55 PM 78.8 °F 46.4 °F 32% 29.90 in 10.0 mi SW 11.5 mph - N/A   Scattered Clouds
5:15 PM 77.0 °F 44.6 °F 32% 29.91 in 10.0 mi SW 10.4 mph 16.1 mph N/A   Scattered Clouds
5:35 PM 75.2 °F 46.4 °F 36% 29.92 in 10.0 mi SW 10.4 mph - N/A   Clear
5:55 PM 75.2 °F 46.4 °F 36% 29.92 in 10.0 mi SW 8.1 mph - N/A   Clear
6:15 PM 73.4 °F 46.4 °F 38% 29.92 in 10.0 mi SSW 8.1 mph - N/A   Clear
6:35 PM 73.4 °F 46.4 °F 38% 29.93 in 10.0 mi SW 8.1 mph - N/A   Clear
6:55 PM 73.4 °F 46.4 °F 38% 29.93 in 10.0 mi SW 5.8 mph - N/A   Clear
7:15 PM 71.6 °F 46.4 °F 41% 29.93 in 10.0 mi SSW 5.8 mph - N/A   Clear
7:35 PM 71.6 °F 48.2 °F 43% 29.94 in 10.0 mi SW 4.6 mph - N/A   Clear
7:55 PM 68.0 °F 51.8 °F 56% 29.95 in 10.0 mi NE 9.2 mph - N/A   Mostly Cloudy
8:15 PM 64.4 °F 51.8 °F 64% 29.97 in 10.0 mi NE 11.5 mph - N/A   Overcast
8:35 PM 62.6 °F 51.8 °F 68% 29.98 in 10.0 mi NE 11.5 mph 17.3 mph N/A   Overcast
8:55 PM 60.8 °F 53.6 °F 77% 30.00 in 10.0 mi ENE 11.5 mph - N/A   Overcast
9:15 PM 60.8 °F 53.6 °F 77% 30.01 in 10.0 mi ENE 13.8 mph - N/A   Mostly Cloudy
9:35 PM 59.0 °F 51.8 °F 77% 30.03 in 10.0 mi ENE 11.5 mph - N/A   Mostly Cloudy
9:55 PM 57.2 °F 51.8 °F 82% 30.03 in 10.0 mi NE 11.5 mph - N/A   Scattered Clouds
10:15 PM 55.4 °F 51.8 °F 88% 30.04 in 10.0 mi NE 11.5 mph - N/A   Clear
10:35 PM 55.4 °F 51.8 °F 88% 30.05 in 7.0 mi ENE 8.1 mph - N/A   Clear
10:55 PM 55.4 °F 51.8 °F 88% 30.05 in 10.0 mi NE 11.5 mph - N/A   Scattered Clouds
11:15 PM 55.4 °F 51.8 °F 88% 30.06 in 7.0 mi ENE 12.7 mph 16.1 mph N/A   Scattered Clouds
11:35 PM 55.4 °F 51.8 °F 88% 30.06 in 7.0 mi ENE 10.4 mph 16.1 mph N/A   Scattered Clouds
11:55 PM 53.6 °F 51.8 °F 94% 30.07 in 7.0 mi ENE 12.7 mph - N/A   Scattered Clouds